Regional Weather Roundup
Issued by NWS Albany, NY

Home | Current Version | Previous Version | Text Only | Print | Product List | Glossary On
Versions: 1 2 3 4 5 6 7 8 9 10 11 12 13 14 15 16 17 18 19 20 21 22 23 24 25 26 27 28 29 30 31 32 33 34 35 36 37 38 39 40 41 42 43 44 45 46 47 48 49 50
000
ASUS41 KALY 302010
RWRALY

NEW YORK STATE HOURLY WEATHER ROUNDUP
NATIONAL WEATHER SERVICE ALBANY NY
400 PM EDT THU JUL 30 2015

NOTE: "FAIR" INDICATES FEW OR NO CLOUDS BELOW 12,000 FEET WITH NO
SIGNIFICANT WEATHER AND/OR NO OBSTRUCTIONS TO VISIBILITY.

NYZ032-033-038>043-046>054-057>066-NYZ062>081-302100-
EAST


CITY           SKY/WX    TMP DP  RH WIND       PRES   REMARKS
ALBANY         PTSUNNY   83  71  67 NW8       29.77S
GLENS FALLS    PTSUNNY   78  73  84 SW6       29.74F
POUGHKEEPSIE   CLOUDY    81  72  74 SW7       29.78F
MONTGOMERY     LGT RAIN  78  72  81 SW9       29.80F
WHITE PLAINS   PTSUNNY   79  70  74 S6        29.82S
ISLIP          CLOUDY    79  72  79 S18G28    29.80F
NEW YORK CITY  LGT RAIN  79  72  79 SE12G22   29.78F VSB 1/2
CENTRAL PARK   CLOUDY    80  76  87 CALM      29.82F FOG
$$

NYZ005>009-017-018-044>046-055-056-302100-
CENTRAL


CITY           SKY/WX    TMP DP  RH WIND       PRES   REMARKS
FULTON         SUNNY     83  58  42 W15G24    29.81F
SYRACUSE       PTSUNNY   84  65  52 W14       29.80F
ROME           MOSUNNY   82  60  47 NW14      29.80F
ELMIRA         MOSUNNY   85  61  44 NW8       29.84F
BINGHAMTON     MOSUNNY   80  59  48 NW10      29.87F
MONTICELLO     CLOUDY    77  73  88 W7        29.86F
$$

NYZ026>034-041>043-302100-
NORTH


CITY           SKY/WX    TMP DP  RH WIND       PRES   REMARKS
WATERTOWN      SUNNY     80  64  58 W15G26    29.77F
FORT DRUM      NOT AVBL
MASSENA        MOSUNNY   84  65  52 SW14      29.71F
SARANAC LAKE   MOSUNNY   78  58  49 W8G21     29.78F
PLATTSBURGH    CLOUDY    80  74  81 S6        29.70F
$$

NYZ001>004-010>016-019>021-302100-
WEST


CITY           SKY/WX    TMP DP  RH WIND       PRES   REMARKS
NIAGARA FALLS  MOSUNNY   83  61  47 SW20G26   29.82F
BUFFALO        MOSUNNY   81  60  48 SW24G32   29.85F
DUNKIRK        SUNNY     80  63  55 W18G28    29.90F
JAMESTOWN      SUNNY     75  52  43 W14G24    29.96F
WELLSVILLE     MOSUNNY   80  57  45 MISG      29.94F
ROCHESTER      PTSUNNY   85  60  42 W16G23    29.82F
PENN YAN       SUNNY     83  59  44 W14G20    29.85F
$$

             KEY
       WCI = WIND CHILL INDEX
       VSB = VISIBILITY
       HX  = HEAT INDEX
$$


USA.gov is the U.S. government's official web portal to all federal, state and local government web resources and services.